SCP
0 0 0 0 0 0 0 0 0 0 0 0 0 0 0 0 0 0 0 0 0 0 0 0 0 0 0 0 -0 0 0 0 0 0 0 0 0 0 0 0 0 0 0 0 0 0 0
0 0 0 0 0 0 0 0 0 0 0 0 0 0 0 0 0 0 0 0 0 0 0 0 0 0 0 0 0 0 0 0 0 0 0 0 0 0 0 0 0 0 0 0 0 0 0
0 0 0 0 0 0 0 0 0 0 0 0 0 0 0 0 0 0 0 0 0 0 0 0 0 0 0 -0 0 0 0 0 0 0 0 0 0 0 0 0 0 0 0 0 -0 0 0
0 0 0 0 0 0 0 0 0 0 0 0 0 0 0 0 0 0 0 0 0 0 0 0 0 0 0 0 0 0 0 0 0 0 0 0 0 0 0 0 0 0 0 0 0 0 0
0 0 0 0 0 0 0 0 0 0 0 0 0 0 0 0 0 0 0 0 0 0 0 0 0 0 0 0 0 0 0 0 0 0 0 0 0 0 0 0 0 0 0 0 0 0 0
0 0 0 0 0 0 0 0 0 0 0 0 0 0 0 0 0 0 0 0 0 0 0 0 0 0 0 0 0 0 0 0 0 0 0 0 0 0 0 0 0 0 0 0 0 0 0
0 0 0 0 0 0 0 0 0 0 0 0 0 0 0 0 0 0 0 0 0 0 0 0 0 0 0 0 0 0 0 0 0 0 0 0 0 0 0 0 0 0 0 0 0 0 0
0 0 0 0 0 0 0 0 0 0 0 0 0 0 0 0 0 0 0 0 0 0 0 0 0 0 0 0 0 0 0 0 0 0 0 0 0 0 0 0 0 0 0 -0 -0 -0 0
0 0 0 0 0 0 0 0 0 0 0 0 0 0 0 0 0 0 0 0 0 0 0 0 0 0 0 0 0 0 0 0 0 0 0 0 0 0 0 0 0 0 0 -0 -0 -0 -0
0 0 0 0 0 0 0 0 0 0 0 0 0 0 0 0 0 0 0 0 0 0 0 0 0 0 0 0 0 -0 0 0 0 0 0 0 0 0 0 0 0 0 0 0 -0 0 0
0 0 0 0 0 0 0 0 0 0 0 0 0 0 0 0 0 0 0 0 0 0 0 0 0 0 0 0 0 0 0 0 0 0 0 0 0 0 0 0 0 0 0 0 -0 0 0
0 0 0 0 0 0 0 0 0 0 0 0 0 0 0 0 0 0 0 0 0 0 0 0 0 0 0 0 0 0 0 0 0 0 0 0 0 0 0 0 0 0 0 0 0 0 0
0 0 0 0 0 0 0 0 0 0 0 0 0 0 0 0 0 0 0 0 0 0 0 0 0 0 0 0 0 0 0 0 0 0 0 0 0 0 0 0 0 0 0 0 0 0 0
0 0 0 0 0 0 0 0 0 0 0 0 0 0 0 0 0 0 0 0 0 0 0 0 0 0 0 0 0 0 0 0 0 0 0 0 0 0 0 0 0 0 0 0 0 0 0
0 0 0 0 0 0 0 0 0 0 0 0 0 0 0 0 0 0 0 0 0 0 0 0 0 0 0 0 0 0 0 0 0 0 0 0 0 0 0 0 0 0 -0 0 0 0 0
0 0 0 0 0 0 0 0 0 0 0 0 0 0 0 0 0 0 0 0 0 0 0 0 0 0 0 0 0 0 0 0 0 0 0 0 0 0 0 0 0 0 0 0 0 0 0
0 0 0 0 0 0 0 0 0 0 0 0 0 0 0 0 0 0 0 0 0 0 0 0 0 0 0 0 0 0 0 0 0 0 0 0 0 0 0 0 0 0 0 0 0 0 0
0 0 0 0 0 0 0 0 0 0 0 0 0 0 0 0 0 0 0 0 0 0 0 0 0 0 0 0 0 0 0 0 0 0 0 0 0 0 0 0 0 -0 0 0 0 0 0
0 0 0 0 0 0 0 0 0 0 0 0 0 0 0 0 0 0 0 0 0 0 0 0 0 0 0 0 0 0 0 0 0 0 0 0 0 0 0 0 0 0 0 0 0 0 0
0 0 0 0 0 0 0 0 0 0 0 0 0 0 0 0 0 0 0 0 0 0 0 0 0 0 0 0 0 0 0 0 0 0 0 0 0 0 0 0 0 0 -0 0 0 0 0
0 0 0 0 0 0 0 0 0 0 0 0 0 0 0 0 0 0 0 0 0 0 0 0 0 0 0 0 0 0 0 0 0 0 0 0 0 0 0 0 0 -0 0 0 0 0 0
0 0 0 0 0 0 0 0 0 0 0 0 0 0 0 0 0 0 0 0 0 0 0 0 0 0 0 0 0 0 0 0 0 0 0 0 0 0 0 0 0 0 0 0 0 0 0
0 0 0 0 0 0 0 0 0 0 0 0 0 0 0 0 0 0 0 0 0 0 0 0 0 0 0 0 0 0 0 0 0 0 0 0 0 0 0 0 0 0 0 0 0 0 0
0 0 0 0 0 0 0 0 0 0 0 0 0 0 0 0 0 0 0 0 0 0 0 0 0 0 0 0 0 0 0 0 0 0 0 0 0 0 0 0 0 0 0 0 0 0 0
0 0 0 0 0 0 0 0 0 0 0 0 0 0 0 0 0 0 0 0 0 0 0 0 0 0 -0 0 -0 -0 0 0 0 0 0 0 0 0 0 0 0 0 0 0 0 0 0
0 0 0 0 0 0 -0 0 0 0 0 0 0 0 0 0 0 0 0 0 0 0 0 0 0 0 0 0 -0 0 0 0 0 0 0 0 0 0 0 0 0 0 0 0 0 0 0
0 0 0 0 0 0 0 0 0 0 0 0 0 0 0 0 0 0 0 0 0 0 0 0 0 0 0 -0 -0 0 0 0 0 0 0 0 0 0 0 0 0 0 0 0 0 0 0
0 0 0 0 0 0 0 0 0 0 0 0 0 0 0 0 0 0 0 0 0 0 0 0 0 0 0 -0 0 0 0 0 0 0 0 0 0 0 0 0 0 0 0 0 0 0 0
0 0 0 0 0 -0 -0 -0 -0 0 0 0 0 0 0 0 0 0 0 0 0 0 0 0 0 0 0 -0 0 0 0 0 0 0 0 0 0 0 0 -0 0 0 0 0 0 0 0
Wind_Speed_500mb
3 2 2 5 5 5 9 11 14 16 17 18 21 24 28 32 36 39 42 44 45 46 48 43 34 31 31 15 5 16 24 34 29 20 21 21 16 9 7 13 25 15 20 28 37 48 45
2 2 1 2 2 3 7 10 13 13 15 18 22 27 30 34 39 41 44 42 47 50 40 32 28 27 17 5 15 21 30 32 27 25 31 27 15 27 27 11 13 16 30 40 45 44 37
4 4 1 1 2 3 4 8 10 12 16 19 23 28 33 37 41 45 45 46 51 44 32 21 28 16 7 3 17 23 23 35 37 38 42 37 29 24 16 12 29 17 26 33 39 31 17
8 5 3 4 5 3 4 7 11 13 16 21 26 30 34 39 45 50 47 48 42 34 14 30 12 16 6 10 20 29 48 55 35 29 31 35 41 39 42 30 17 13 9 13 28 6 16
10 6 6 8 8 6 6 8 10 14 18 22 27 32 36 43 50 49 53 52 38 17 11 19 6 14 7 18 34 51 42 34 41 44 41 43 40 39 17 10 15 14 16 19 32 10 17
12 9 9 11 9 8 7 9 11 15 19 24 28 33 40 46 53 49 57 50 35 4 28 1 8 11 9 31 46 52 41 37 46 45 26 12 11 7 2 12 18 12 14 16 22 1 19
15 12 13 14 11 9 9 10 11 15 18 23 29 34 40 47 49 50 61 37 34 6 15 9 11 10 30 37 54 52 45 46 28 10 7 15 9 24 23 27 34 31 38 43 38 33 24
18 17 15 14 13 11 12 11 12 15 19 24 30 35 41 46 38 47 50 34 29 17 17 10 13 24 28 37 39 59 29 14 9 15 12 8 22 34 24 30 32 33 36 37 28 29 21
22 20 18 16 16 14 14 13 13 15 19 25 31 37 41 44 28 46 42 44 33 4 7 12 17 15 21 53 35 33 32 22 9 14 11 18 32 35 26 22 25 26 33 39 37 28 19
25 22 20 18 18 17 15 14 14 15 19 26 31 37 43 39 19 42 31 43 26 3 7 13 14 10 28 67 5 39 23 17 16 13 18 18 14 18 35 32 28 27 22 28 33 26 18
27 25 23 21 20 18 16 14 15 16 20 25 32 37 42 36 30 40 43 37 13 3 11 27 12 11 74 13 31 9 46 27 16 16 2 16 45 36 29 18 23 18 22 24 26 25 22
31 29 26 24 22 20 17 15 15 16 19 25 30 36 39 29 35 41 38 25 9 12 10 16 14 20 27 14 18 22 26 26 17 11 16 31 42 5 2 30 28 29 26 31 27 14 14
33 31 29 26 23 21 19 17 15 14 19 24 30 36 36 26 40 40 35 12 10 14 11 20 16 20 26 14 14 15 17 13 13 13 31 18 11 5 10 22 14 1 9 7 8 2 10
35 33 33 28 24 22 21 18 16 14 18 22 28 34 27 25 38 36 26 10 19 8 12 9 12 22 9 20 8 24 15 12 13 4 17 11 17 11 17 8 13 15 5 5 9 7 6
36 33 34 32 26 24 22 19 16 15 19 23 29 30 13 30 34 29 10 13 13 13 6 14 20 10 11 9 3 15 9 6 6 18 7 10 12 6 21 9 16 11 19 30 14 8 7
38 30 33 32 27 25 23 20 17 15 19 25 29 25 9 29 26 18 11 4 5 8 4 7 3 3 8 11 15 13 11 4 11 18 22 7 15 8 19 12 4 9 20 13 8 7 7
37 37 33 31 29 27 25 21 17 15 18 23 26 10 13 27 15 9 7 11 9 11 4 6 7 9 11 11 6 8 9 13 7 25 35 12 8 14 15 11 19 16 18 10 11 11 5
40 39 36 34 30 29 27 22 16 17 16 18 12 6 17 22 10 7 5 10 5 8 2 5 8 11 10 7 9 6 8 4 25 33 18 6 7 10 19 11 3 15 28 12 6 9 8
47 40 40 35 31 31 29 24 18 19 13 16 14 3 11 13 6 5 9 7 6 5 1 2 7 8 2 7 8 8 8 14 34 31 9 15 5 11 15 4 21 14 46 38 6 4 21
51 46 44 39 34 33 31 27 21 21 12 10 6 5 6 11 13 10 4 6 10 8 5 8 11 10 7 7 8 12 14 14 53 23 7 29 5 6 6 7 13 25 45 45 26 9 14
53 52 47 43 35 34 33 30 26 23 13 6 3 4 2 3 5 3 5 7 5 10 1 6 7 5 4 8 8 7 10 30 14 6 17 9 6 9 16 6 14 40 32 46 42 32 16
62 59 55 47 42 39 38 34 30 26 18 12 4 6 5 4 5 1 3 4 3 9 4 8 6 8 10 10 13 16 23 9 10 12 13 5 6 6 4 15 11 32 38 33 36 38 20
60 61 58 53 49 45 42 37 35 31 24 13 7 7 3 0 4 6 5 6 4 4 8 23 18 12 5 15 28 50 43 46 38 17 9 8 5 7 7 6 2 11 41 20 27 36 20
63 63 60 58 54 49 44 39 38 37 30 19 10 8 6 6 3 7 5 6 5 6 8 14 30 3 12 59 43 7 8 21 22 24 23 11 12 2 7 9 15 6 29 12 15 43 47
61 58 64 62 59 55 52 46 42 41 34 24 16 10 7 2 4 6 6 7 13 11 7 11 14 19 44 28 8 11 10 12 9 9 10 13 4 6 7 6 5 7 27 17 13 23 44
73 58 63 67 64 59 59 52 47 44 37 28 20 16 8 11 9 5 2 2 1 5 12 9 17 22 27 9 9 9 8 7 15 31 15 14 11 11 8 12 13 11 39 52 16 22 57
72 68 65 76 68 66 63 57 51 49 39 33 23 21 10 5 12 7 3 2 3 3 4 11 23 19 21 7 8 9 6 5 10 14 14 14 9 8 10 9 7 13 57 22 15 6 46
73 70 75 68 75 72 73 64 58 52 44 39 30 23 15 5 15 8 8 4 1 2 3 12 8 10 12 9 7 2 4 5 4 6 10 8 10 7 6 10 10 50 23 15 3 9 22
67 71 77 64 82 81 75 70 62 54 51 44 33 26 19 7 9 9 8 5 4 5 2 12 6 3 7 7 4 5 5 5 2 6 8 6 4 4 6 3 5 14 7 9 7 8 16
Wind_Direction_500mb
103 92 69 51 53 30 41 42 38 32 26 19 12 8 3 357 348 343 338 336 328 325 327 330 328 328 340 338 309 336 332 330 323 317 347 326 316 310 249 279 300 256 272 296 302 303 296
183 174 125 47 18 14 28 33 34 22 17 8 5 1 356 351 345 340 339 336 324 323 329 330 329 323 336 314 1 337 333 334 329 300 306 309 288 298 278 262 231 279 307 298 297 285 283
218 222 186 280 295 340 4 19 21 12 6 1 357 354 353 349 343 342 343 337 323 324 329 327 331 331 311 17 350 340 327 323 314 302 295 295 288 273 279 293 282 287 305 297 279 278 252
225 230 228 248 260 275 326 353 8 360 358 355 352 350 351 345 343 344 346 341 324 326 317 330 347 342 266 343 343 329 323 317 315 297 287 289 288 278 256 254 289 272 244 279 274 240 248
234 231 240 242 252 271 307 338 354 349 353 351 349 349 348 347 344 344 347 345 330 331 293 336 349 347 313 337 333 333 334 321 318 308 294 290 272 260 239 230 279 219 267 243 284 209 263
237 232 243 245 248 265 293 317 341 344 348 348 346 348 348 347 342 345 349 349 346 319 344 102 352 314 336 325 332 328 342 321 312 310 322 275 243 242 242 210 260 240 240 248 257 230 309
234 231 238 243 244 261 283 302 325 332 345 342 345 347 349 347 341 347 352 8 15 311 7 324 304 275 318 332 332 327 338 319 303 284 299 269 249 250 252 233 245 263 265 270 268 278 277
231 231 235 243 249 256 269 289 309 327 338 341 341 346 350 347 344 352 350 26 8 325 320 13 326 310 346 339 316 329 334 310 315 292 301 308 261 273 268 272 278 282 293 283 275 272 248
230 230 232 237 246 251 263 280 300 321 334 337 342 344 349 349 343 351 356 2 352 311 267 319 343 334 343 335 311 311 330 314 270 286 279 271 269 297 295 299 288 266 268 273 269 286 274
229 230 232 234 241 248 259 277 297 315 328 335 340 345 346 355 357 349 349 345 340 10 61 312 356 16 340 335 285 331 333 310 317 284 283 274 267 278 308 294 283 285 280 278 271 267 264
229 228 230 232 237 245 256 274 291 307 323 334 339 344 345 353 354 352 338 337 341 308 34 311 333 338 332 341 313 308 334 322 272 294 28 281 305 310 313 298 306 254 307 291 280 259 270
227 227 230 233 234 238 249 264 280 301 320 330 337 341 345 348 354 348 335 334 332 40 313 337 339 333 348 314 312 313 332 0 306 304 285 286 298 249 310 300 278 270 281 271 257 238 244
226 226 229 232 235 240 245 255 268 292 314 326 334 339 343 352 350 345 337 332 37 94 354 311 327 343 332 311 317 6 334 12 30 346 340 330 303 289 30 311 320 111 285 308 352 343 231
226 227 226 229 233 239 245 253 267 290 306 322 329 336 340 350 349 340 343 44 62 237 249 345 322 321 322 3 334 330 335 356 46 355 310 342 327 10 337 319 274 312 286 268 278 227 246
230 229 225 227 228 235 242 250 263 284 302 318 328 335 344 352 347 344 341 49 197 212 271 339 328 8 319 328 268 339 333 301 50 34 24 320 281 275 301 349 342 341 354 293 257 213 257
237 233 229 225 225 232 237 246 257 278 299 316 329 334 350 353 343 356 64 202 208 236 342 63 354 95 300 298 341 355 324 322 332 22 27 273 290 307 337 349 309 320 348 325 338 286 268
235 235 235 226 223 228 232 238 249 270 293 316 329 324 352 349 349 30 105 225 266 272 300 127 222 291 257 299 281 302 284 299 24 347 336 278 237 293 328 5 320 347 346 338 281 259 283
233 232 230 226 224 225 229 230 238 260 286 314 328 343 345 348 34 40 111 195 288 283 339 291 228 234 234 307 292 278 277 280 336 349 322 305 286 294 310 283 308 15 349 328 264 340 328
230 224 228 223 227 223 226 225 226 247 275 314 318 347 359 2 84 331 317 290 263 270 248 9 275 204 158 266 324 241 284 274 316 339 335 352 322 318 348 2 7 9 360 358 312 255 16
220 221 221 221 221 225 223 221 220 234 251 303 307 34 10 54 84 128 129 301 308 293 252 255 262 296 359 323 242 281 296 303 319 325 4 336 278 252 265 328 352 3 13 10 17 23 324
224 220 220 219 218 224 221 218 215 224 233 273 318 99 145 285 10 114 129 172 285 335 245 296 297 220 152 300 309 246 265 317 305 8 351 346 281 312 313 213 51 33 16 16 25 2 29
229 223 217 215 219 222 219 211 214 216 214 229 248 148 126 106 114 187 353 240 275 300 170 279 199 262 192 218 195 289 315 339 281 324 332 337 295 319 347 144 91 39 19 24 25 7 354
229 223 218 217 218 218 217 208 210 214 205 221 199 189 197 73 112 89 227 238 223 334 246 241 277 313 259 237 277 276 268 258 261 295 306 314 306 352 303 244 70 15 13 16 33 24 344
233 223 222 218 216 216 212 205 209 213 209 215 216 195 180 263 122 212 216 247 251 247 253 277 297 123 281 312 311 291 252 249 251 268 251 294 319 70 286 7 41 325 15 346 351 27 18
214 217 222 219 215 211 206 201 207 212 211 211 218 214 213 185 248 262 237 261 310 307 273 277 287 295 312 322 18 14 349 12 325 258 305 221 328 26 74 15 191 353 1 352 354 23 11
220 219 218 225 214 209 207 198 203 211 210 210 216 216 231 145 238 227 183 343 355 329 324 271 315 323 345 37 53 55 34 280 330 334 331 6 38 68 13 76 33 319 332 331 294 36 359
217 222 228 219 210 203 205 201 202 206 207 208 216 210 220 166 168 176 129 156 15 1 241 308 337 346 3 24 60 40 324 212 10 355 335 335 359 62 2 83 28 333 326 328 61 320 345
220 218 226 219 211 199 199 196 201 201 204 208 212 209 205 181 168 193 186 180 220 319 123 329 346 357 13 60 88 14 83 273 3 266 331 348 348 339 354 58 38 358 356 58 269 6 9
218 215 223 212 210 207 203 198 200 201 201 206 204 203 206 201 147 180 187 199 209 239 348 25 110 4 25 80 23 78 6 16 182 342 338 37 23 358 47 131 23 22 65 52 54 52 19
Wind_Speed_850mb
3 2 2 5 5 5 9 11 14 16 17 18 21 24 28 32 36 39 42 44 45 46 48 43 34 31 31 15 5 16 24 34 29 20 21 21 16 9 7 13 25 15 20 28 37 48 45
2 2 1 2 2 3 7 10 13 13 15 18 22 27 30 34 39 41 44 42 47 50 40 32 28 27 17 5 15 21 30 32 27 25 31 27 15 27 27 11 13 16 30 40 45 44 37
4 4 1 1 2 3 4 8 10 12 16 19 23 28 33 37 41 45 45 46 51 44 32 21 28 16 7 3 17 23 23 35 37 38 42 37 29 24 16 12 29 17 26 33 39 31 17
8 5 3 4 5 3 4 7 11 13 16 21 26 30 34 39 45 50 47 48 42 34 14 30 12 16 6 10 20 29 48 55 35 29 31 35 41 39 42 30 17 13 9 13 28 6 16
10 6 6 8 8 6 6 8 10 14 18 22 27 32 36 43 50 49 53 52 38 17 11 19 6 14 7 18 34 51 42 34 41 44 41 43 40 39 17 10 15 14 16 19 32 10 17
12 9 9 11 9 8 7 9 11 15 19 24 28 33 40 46 53 49 57 50 35 4 28 1 8 11 9 31 46 52 41 37 46 45 26 12 11 7 2 12 18 12 14 16 22 1 19
15 12 13 14 11 9 9 10 11 15 18 23 29 34 40 47 49 50 61 37 34 6 15 9 11 10 30 37 54 52 45 46 28 10 7 15 9 24 23 27 34 31 38 43 38 33 24
18 17 15 14 13 11 12 11 12 15 19 24 30 35 41 46 38 47 50 34 29 17 17 10 13 24 28 37 39 59 29 14 9 15 12 8 22 34 24 30 32 33 36 37 28 29 21
22 20 18 16 16 14 14 13 13 15 19 25 31 37 41 44 28 46 42 44 33 4 7 12 17 15 21 53 35 33 32 22 9 14 11 18 32 35 26 22 25 26 33 39 37 28 19
25 22 20 18 18 17 15 14 14 15 19 26 31 37 43 39 19 42 31 43 26 3 7 13 14 10 28 67 5 39 23 17 16 13 18 18 14 18 35 32 28 27 22 28 33 26 18
27 25 23 21 20 18 16 14 15 16 20 25 32 37 42 36 30 40 43 37 13 3 11 27 12 11 74 13 31 9 46 27 16 16 2 16 45 36 29 18 23 18 22 24 26 25 22
31 29 26 24 22 20 17 15 15 16 19 25 30 36 39 29 35 41 38 25 9 12 10 16 14 20 27 14 18 22 26 26 17 11 16 31 42 5 2 30 28 29 26 31 27 14 14
33 31 29 26 23 21 19 17 15 14 19 24 30 36 36 26 40 40 35 12 10 14 11 20 16 20 26 14 14 15 17 13 13 13 31 18 11 5 10 22 14 1 9 7 8 2 10
35 33 33 28 24 22 21 18 16 14 18 22 28 34 27 25 38 36 26 10 19 8 12 9 12 22 9 20 8 24 15 12 13 4 17 11 17 11 17 8 13 15 5 5 9 7 6
36 33 34 32 26 24 22 19 16 15 19 23 29 30 13 30 34 29 10 13 13 13 6 14 20 10 11 9 3 15 9 6 6 18 7 10 12 6 21 9 16 11 19 30 14 8 7
38 30 33 32 27 25 23 20 17 15 19 25 29 25 9 29 26 18 11 4 5 8 4 7 3 3 8 11 15 13 11 4 11 18 22 7 15 8 19 12 4 9 20 13 8 7 7
37 37 33 31 29 27 25 21 17 15 18 23 26 10 13 27 15 9 7 11 9 11 4 6 7 9 11 11 6 8 9 13 7 25 35 12 8 14 15 11 19 16 18 10 11 11 5
40 39 36 34 30 29 27 22 16 17 16 18 12 6 17 22 10 7 5 10 5 8 2 5 8 11 10 7 9 6 8 4 25 33 18 6 7 10 19 11 3 15 28 12 6 9 8
47 40 40 35 31 31 29 24 18 19 13 16 14 3 11 13 6 5 9 7 6 5 1 2 7 8 2 7 8 8 8 14 34 31 9 15 5 11 15 4 21 14 46 38 6 4 21
51 46 44 39 34 33 31 27 21 21 12 10 6 5 6 11 13 10 4 6 10 8 5 8 11 10 7 7 8 12 14 14 53 23 7 29 5 6 6 7 13 25 45 45 26 9 14
53 52 47 43 35 34 33 30 26 23 13 6 3 4 2 3 5 3 5 7 5 10 1 6 7 5 4 8 8 7 10 30 14 6 17 9 6 9 16 6 14 40 32 46 42 32 16
62 59 55 47 42 39 38 34 30 26 18 12 4 6 5 4 5 1 3 4 3 9 4 8 6 8 10 10 13 16 23 9 10 12 13 5 6 6 4 15 11 32 38 33 36 38 20
60 61 58 53 49 45 42 37 35 31 24 13 7 7 3 0 4 6 5 6 4 4 8 23 18 12 5 15 28 50 43 46 38 17 9 8 5 7 7 6 2 11 41 20 27 36 20
63 63 60 58 54 49 44 39 38 37 30 19 10 8 6 6 3 7 5 6 5 6 8 14 30 3 12 59 43 7 8 21 22 24 23 11 12 2 7 9 15 6 29 12 15 43 47
61 58 64 62 59 55 52 46 42 41 34 24 16 10 7 2 4 6 6 7 13 11 7 11 14 19 44 28 8 11 10 12 9 9 10 13 4 6 7 6 5 7 27 17 13 23 44
73 58 63 67 64 59 59 52 47 44 37 28 20 16 8 11 9 5 2 2 1 5 12 9 17 22 27 9 9 9 8 7 15 31 15 14 11 11 8 12 13 11 39 52 16 22 57
72 68 65 76 68 66 63 57 51 49 39 33 23 21 10 5 12 7 3 2 3 3 4 11 23 19 21 7 8 9 6 5 10 14 14 14 9 8 10 9 7 13 57 22 15 6 46
73 70 75 68 75 72 73 64 58 52 44 39 30 23 15 5 15 8 8 4 1 2 3 12 8 10 12 9 7 2 4 5 4 6 10 8 10 7 6 10 10 50 23 15 3 9 22
67 71 77 64 82 81 75 70 62 54 51 44 33 26 19 7 9 9 8 5 4 5 2 12 6 3 7 7 4 5 5 5 2 6 8 6 4 4 6 3 5 14 7 9 7 8 16
Wind_Direction_850mb
103 92 69 51 53 30 41 42 38 32 26 19 12 8 3 357 348 343 338 336 328 325 327 330 328 328 340 338 309 336 332 330 323 317 347 326 316 310 249 279 300 256 272 296 302 303 296
183 174 125 47 18 14 28 33 34 22 17 8 5 1 356 351 345 340 339 336 324 323 329 330 329 323 336 314 1 337 333 334 329 300 306 309 288 298 278 262 231 279 307 298 297 285 283
218 222 186 280 295 340 4 19 21 12 6 1 357 354 353 349 343 342 343 337 323 324 329 327 331 331 311 17 350 340 327 323 314 302 295 295 288 273 279 293 282 287 305 297 279 278 252
225 230 228 248 260 275 326 353 8 360 358 355 352 350 351 345 343 344 346 341 324 326 317 330 347 342 266 343 343 329 323 317 315 297 287 289 288 278 256 254 289 272 244 279 274 240 248
234 231 240 242 252 271 307 338 354 349 353 351 349 349 348 347 344 344 347 345 330 331 293 336 349 347 313 337 333 333 334 321 318 308 294 290 272 260 239 230 279 219 267 243 284 209 263
237 232 243 245 248 265 293 317 341 344 348 348 346 348 348 347 342 345 349 349 346 319 344 102 352 314 336 325 332 328 342 321 312 310 322 275 243 242 242 210 260 240 240 248 257 230 309
234 231 238 243 244 261 283 302 325 332 345 342 345 347 349 347 341 347 352 8 15 311 7 324 304 275 318 332 332 327 338 319 303 284 299 269 249 250 252 233 245 263 265 270 268 278 277
231 231 235 243 249 256 269 289 309 327 338 341 341 346 350 347 344 352 350 26 8 325 320 13 326 310 346 339 316 329 334 310 315 292 301 308 261 273 268 272 278 282 293 283 275 272 248
230 230 232 237 246 251 263 280 300 321 334 337 342 344 349 349 343 351 356 2 352 311 267 319 343 334 343 335 311 311 330 314 270 286 279 271 269 297 295 299 288 266 268 273 269 286 274
229 230 232 234 241 248 259 277 297 315 328 335 340 345 346 355 357 349 349 345 340 10 61 312 356 16 340 335 285 331 333 310 317 284 283 274 267 278 308 294 283 285 280 278 271 267 264
229 228 230 232 237 245 256 274 291 307 323 334 339 344 345 353 354 352 338 337 341 308 34 311 333 338 332 341 313 308 334 322 272 294 28 281 305 310 313 298 306 254 307 291 280 259 270
227 227 230 233 234 238 249 264 280 301 320 330 337 341 345 348 354 348 335 334 332 40 313 337 339 333 348 314 312 313 332 0 306 304 285 286 298 249 310 300 278 270 281 271 257 238 244
226 226 229 232 235 240 245 255 268 292 314 326 334 339 343 352 350 345 337 332 37 94 354 311 327 343 332 311 317 6 334 12 30 346 340 330 303 289 30 311 320 111 285 308 352 343 231
226 227 226 229 233 239 245 253 267 290 306 322 329 336 340 350 349 340 343 44 62 237 249 345 322 321 322 3 334 330 335 356 46 355 310 342 327 10 337 319 274 312 286 268 278 227 246
230 229 225 227 228 235 242 250 263 284 302 318 328 335 344 352 347 344 341 49 197 212 271 339 328 8 319 328 268 339 333 301 50 34 24 320 281 275 301 349 342 341 354 293 257 213 257
237 233 229 225 225 232 237 246 257 278 299 316 329 334 350 353 343 356 64 202 208 236 342 63 354 95 300 298 341 355 324 322 332 22 27 273 290 307 337 349 309 320 348 325 338 286 268
235 235 235 226 223 228 232 238 249 270 293 316 329 324 352 349 349 30 105 225 266 272 300 127 222 291 257 299 281 302 284 299 24 347 336 278 237 293 328 5 320 347 346 338 281 259 283
233 232 230 226 224 225 229 230 238 260 286 314 328 343 345 348 34 40 111 195 288 283 339 291 228 234 234 307 292 278 277 280 336 349 322 305 286 294 310 283 308 15 349 328 264 340 328
230 224 228 223 227 223 226 225 226 247 275 314 318 347 359 2 84 331 317 290 263 270 248 9 275 204 158 266 324 241 284 274 316 339 335 352 322 318 348 2 7 9 360 358 312 255 16
220 221 221 221 221 225 223 221 220 234 251 303 307 34 10 54 84 128 129 301 308 293 252 255 262 296 359 323 242 281 296 303 319 325 4 336 278 252 265 328 352 3 13 10 17 23 324
224 220 220 219 218 224 221 218 215 224 233 273 318 99 145 285 10 114 129 172 285 335 245 296 297 220 152 300 309 246 265 317 305 8 351 346 281 312 313 213 51 33 16 16 25 2 29
229 223 217 215 219 222 219 211 214 216 214 229 248 148 126 106 114 187 353 240 275 300 170 279 199 262 192 218 195 289 315 339 281 324 332 337 295 319 347 144 91 39 19 24 25 7 354
229 223 218 217 218 218 217 208 210 214 205 221 199 189 197 73 112 89 227 238 223 334 246 241 277 313 259 237 277 276 268 258 261 295 306 314 306 352 303 244 70 15 13 16 33 24 344
233 223 222 218 216 216 212 205 209 213 209 215 216 195 180 263 122 212 216 247 251 247 253 277 297 123 281 312 311 291 252 249 251 268 251 294 319 70 286 7 41 325 15 346 351 27 18
214 217 222 219 215 211 206 201 207 212 211 211 218 214 213 185 248 262 237 261 310 307 273 277 287 295 312 322 18 14 349 12 325 258 305 221 328 26 74 15 191 353 1 352 354 23 11
220 219 218 225 214 209 207 198 203 211 210 210 216 216 231 145 238 227 183 343 355 329 324 271 315 323 345 37 53 55 34 280 330 334 331 6 38 68 13 76 33 319 332 331 294 36 359
217 222 228 219 210 203 205 201 202 206 207 208 216 210 220 166 168 176 129 156 15 1 241 308 337 346 3 24 60 40 324 212 10 355 335 335 359 62 2 83 28 333 326 328 61 320 345
220 218 226 219 211 199 199 196 201 201 204 208 212 209 205 181 168 193 186 180 220 319 123 329 346 357 13 60 88 14 83 273 3 266 331 348 348 339 354 58 38 358 356 58 269 6 9
218 215 223 212 210 207 203 198 200 201 201 206 204 203 206 201 147 180 187 199 209 239 348 25 110 4 25 80 23 78 6 16 182 342 338 37 23 358 47 131 23 22 65 52 54 52 19